Location: Unspecified
(0.0000°N, 0.0000°E)
Time: 09:10:51
(UTC+00:00)

Cosmos 2058 - Pass Details

Date: 01 May 2019
Orbit: 561 x 585 km, 82.5° (Epoch: 23 May)

Event Time Altitude Azimuth Distance (km) Brightness Sun altitude
Rises 18:52:51 0° 322° (NW) 2,736 7.3 -13.4°
Reaches altitude 10° 18:56:04 10° 294° (WNW) 1,847 6.9 -14.2°
Maximum altitude 18:57:59 13° 266° (W) 1,658 6.4 -14.7°
Drops below altitude 10° 18:59:55 10° 238° (WSW) 1,854 6.1 -15.1°
Sets 19:03:10 0° 210° (SSW) 2,758 6.6 -15.9°
